This is the latest recevied weather packets stored in our database for station/object KN6ZYR. If no packets are shown the sender has not sent any weather packets the latest 10 day(s).
| Time | Temp. | Humidity | Pressure | Rain* | Wind** | Luminosity | Snow |
|---|---|---|---|---|---|---|---|
| 1777931705 | 17.78° C | 31% | 1013.4 hPa | 0 mm | - | 783 W/m² | - |
| 1777931402 | 17.22° C | 32% | 1013.3 hPa | 0 mm | - | 748 W/m² | - |
| 1777931098 | 16.67° C | 32% | 1013.6 hPa | 0 mm | - | 374 W/m² | - |
| 1777930795 | 16.67° C | 33% | 1013.7 hPa | 0 mm | - | 288 W/m² | - |
| 1777930491 | 16.67° C | 33% | 1013.2 hPa | 0 mm | - | 213 W/m² | - |
| 1777930188 | 16.67° C | 34% | 1013.3 hPa | 0 mm | - | 199 W/m² | - |
| 1777929884 | 16.67° C | 30% | 1013.6 hPa | 0 mm | - | 202 W/m² | - |
| 1777929582 | 16.67° C | 29% | 1013.7 hPa | 0 mm | - | 211 W/m² | - |
| 1777929278 | 16.67° C | 32% | 1013.6 hPa | 0 mm | - | 174 W/m² | - |
| 1777928976 | 16.11° C | 33% | 1014 hPa | 0 mm | - | 128 W/m² | - |
| 1777928672 | 16.11° C | 32% | 1014 hPa | 0 mm | - | 104 W/m² | - |
| 1777928369 | 16.11° C | 32% | 1013.7 hPa | 0 mm | - | 91 W/m² | - |
| 1777928067 | 16.11° C | 33% | 1014.1 hPa | 0 mm | - | 92 W/m² | - |
| 1777927765 | 16.11° C | 34% | 1014.1 hPa | 0 mm | - | 96 W/m² | - |
| 1777927463 | 16.11° C | 34% | 1014 hPa | 0 mm | - | 103 W/m² | - |
| 1777927162 | 16.11° C | 35% | 1013.8 hPa | 0 mm | - | 106 W/m² | - |
| 1777926859 | 16.67° C | 34% | 1013.8 hPa | 0 mm | - | 116 W/m² | - |
| 1777926555 | 16.11° C | 33% | 1013.8 hPa | 0 mm | - | 122 W/m² | - |
| 1777926252 | 16.11° C | 37% | 1013.4 hPa | 0 mm | - | 116 W/m² | - |
| 1777925948 | 16.67° C | 35% | 1013.1 hPa | 0 mm | - | 114 W/m² | - |
| 1777925646 | 16.67° C | 34% | 1013.3 hPa | 0 mm | - | 131 W/m² | - |
| 1777925344 | 17.22° C | 31% | 1013.1 hPa | 0 mm | - | 135 W/m² | - |
| 1777925040 | 17.78° C | 29% | 1013 hPa | 0 mm | - | 145 W/m² | - |
| 1777924737 | 18.33° C | 28% | 1012.6 hPa | 0 mm | - | 147 W/m² | - |
| 1777924432 | 19.44° C | 26% | 1012.4 hPa | 0 mm | - | 152 W/m² | - |
* Rain latest hour (hover to see other rain measurements)
** Current wind speed in m/s (hover to see current wind gust speed)